Regional Weather Roundup
Issued by NWS

Home | Current Version | Previous Version | Text Only | Print | Product List | Glossary Off
Versions: 1 2 3 4 5 6 7 8 9 10 11 12 13 14 15 16 17 18 19 20 21 22 23 24 25 26 27 28 29 30 31 32 33 34 35 36 37 38 39 40 41 42 43 44 45 46 47 48 49 50

160
ASUS43 KLMK 251302
RWRKY
KENTUCKY REGIONAL WEATHER ROUNDUP
NATIONAL WEATHER SERVICE LOUISVILLE KY
900 AM EDT SUN JUN 25 2017

NOTE "FAIR" INDICATES FEW OR NO CLOUDS BELOW 12,000 FEET
WITH NO SIGNIFICANT WEATHER AND/OR OBSTRUCTIONS TO VISIBILITY.

KYZ001>023-026-027-061>063-070>075-251400-
WESTERN AND SOUTH CENTRAL KENTUCKY

CITY           SKY/WX    TMP DP  RH WIND       PRES   REMARKS
PADUCAH        SUNNY     68  57  68 W3        30.22R
HENDERSON      SUNNY     65  60  84 SW5       30.21R
OWENSBORO      MOSUNNY   66  58  75 SW3       30.21R
HOPKINSVILLE   SUNNY     66  57  73 NW3       30.22R
BOWLING GREEN  MOSUNNY   67  57  70 CALM      30.22R
GLASGOW        NOT AVBL
$$

KYZ024-025-028>034-038-045-046-053-251400-
NORTH CENTRAL KENTUCKY

CITY           SKY/WX    TMP DP  RH WIND       PRES   REMARKS
LOUISVILLE/SDF MOSUNNY   68  55  63 CALM      30.19R
LOUISVILLE/LOU SUNNY     67  56  67 CALM      30.20R
FORT KNOX      SUNNY     66  55  66 W5        30.19R
$$

KYZ035>037-039>044-047>052-055>060-089>105-251400-
NORTHEAST KENTUCKY

CITY           SKY/WX    TMP DP  RH WIND       PRES   REMARKS
LEXINGTON      SUNNY     66  54  65 W3        30.21R
COVINGTON      SUNNY     65  51  60 SW8       30.16S
FRANKFORT      SUNNY     65  55  70 SW5       30.19R
$$

KYZ054-064>069-076>088-106>120-251400-
SOUTHEAST KENTUCKY

CITY           SKY/WX    TMP DP  RH WIND       PRES   REMARKS
JACKSON        SUNNY     65  59  81 CALM      30.21R
LONDON         SUNNY     66  55  67 NW3       30.22R
SOMERSET       SUNNY     64  55  72 CALM      30.24R
MIDDLESBORO    SUNNY     65  59  82 CALM      30.23R
MONTICELLO     MOSUNNY   67  61  81 W10       30.25R
$$





USA.gov is the U.S. government's official web portal to all federal, state and local government web resources and services.